Le nostre stazioni meteo in Italia

Pubblicità
Il mio iltempo24.it
Marina Di Ginosa, Italia (16325): Temperatura & dewpoint: 12.03.2019 20:00:00 - 18.03.2019 20:00:00 (CET)Marina Di Ginosa, Italia (16325): velocità del vento: 12.03.2019 20:00:00 - 18.03.2019 20:00:00 (CET)Marina Di Ginosa, Italia (16325): direzione del vento: 12.03.2019 20:00:00 - 18.03.2019 20:00:00 (CET)Marina Di Ginosa, Italia (16325): reduced air pressure: 12.03.2019 20:00:00 - 18.03.2019 20:00:00 (CET)Marina Di Ginosa, Italia (16325): visibility: 12.03.2019 20:00:00 - 18.03.2019 20:00:00 (CET)
Data & Tempo tt [°C] td [°C] ff [km/h] ff [kn] dd ppp [hPa] vv [km]
18.03.2019 20:00:00 - - - - - - -
18.03.2019 19:00:00 15,0 13,4 16 9 SE 1014,4 10
18.03.2019 18:00:00 15,0 13,0 21 11 SSE - 10
18.03.2019 17:00:00 16,0 14,0 22 12 SE - 10
18.03.2019 16:00:00 17,2 13,7 15 8 SSE 1013,6 10
18.03.2019 15:00:00 18,0 14,0 22 12 SSE - 10
18.03.2019 14:00:00 18,0 14,0 21 11 SSE - 10
18.03.2019 13:00:00 18,8 14,3 22 12 SSE 1014,4 10
18.03.2019 12:00:00 19,0 13,0 13 7 SSE - 10
18.03.2019 11:00:00 18,0 12,0 8 4 S - 10
18.03.2019 10:00:00 17,0 11,1 11 6 SSO 1014,4 10
18.03.2019 09:00:00 16,0 11,0 11 6 S - 10
18.03.2019 08:00:00 11,0 11,0 2 1 OSO - 10
18.03.2019 07:00:00 11,0 9,9 8 4 OSO 1013,6 10
18.03.2019 06:00:00 13,0 12,0 5 3 ONO - 10
18.03.2019 05:00:00 14,0 13,0 8 4 ONO - 10
18.03.2019 04:00:00 14,8 13,5 9 5 SSO 1013,6 10
18.03.2019 03:00:00 15,0 14,0 9 5 S - 10
18.03.2019 02:00:00 15,0 14,0 28 15 SE - 10
18.03.2019 01:00:00 15,0 13,4 29 16 SE 1014,9 10
18.03.2019 00:00:00 15,0 13,0 28 15 SE - 10
17.03.2019 23:00:00 15,0 13,0 24 13 SE - 10
17.03.2019 22:00:00 16,0 13,5 29 16 SE 1015,5 10
17.03.2019 21:00:00 16,0 14,0 29 16 SE - 10
17.03.2019 20:00:00 16,0 14,0 28 15 SE - 10
17.03.2019 19:00:00 16,0 13,7 26 14 SE 1015,8 10
17.03.2019 18:00:00 16,0 14,0 26 14 SE - 10
17.03.2019 17:00:00 16,0 13,0 21 11 SE - 10
17.03.2019 16:00:00 16,8 13,1 22 12 SE 1016,2 10
17.03.2019 15:00:00 17,0 13,0 18 10 SE - 10
17.03.2019 14:00:00 18,0 14,0 24 13 SE - 10
17.03.2019 13:00:00 17,6 12,7 22 12 SE 1017,6 10
17.03.2019 12:00:00 18,0 13,0 21 11 SE - 10
17.03.2019 11:00:00 18,0 12,0 15 8 SE - 10
17.03.2019 10:00:00 17,4 13,3 11 6 ESE 1018,2 10
17.03.2019 09:00:00 16,0 13,0 4 2 - - 10
17.03.2019 08:00:00 13,0 11,0 8 4 ONO - 10
17.03.2019 07:00:00 12,4 11,0 9 5 ONO 1017,4 10
17.03.2019 06:00:00 12,0 11,0 5 3 - - 10
17.03.2019 05:00:00 12,0 11,0 8 4 NNO - 10
17.03.2019 04:00:00 12,2 11,3 5 3 N 1016,9 10
17.03.2019 03:00:00 12,0 11,0 8 4 N - 10
17.03.2019 02:00:00 11,0 10,0 8 4 NNO - 10
17.03.2019 01:00:00 10,4 9,5 8 4 NNO 1017,8 10
17.03.2019 00:00:00 11,0 10,0 9 5 N - 10
16.03.2019 23:00:00 12,0 11,0 8 4 NNE - 10
16.03.2019 22:00:00 13,0 11,9 11 6 NE 1017,7 10
16.03.2019 21:00:00 13,0 12,0 11 6 NE - 10
16.03.2019 20:00:00 13,0 12,0 9 5 E - 10
16.03.2019 19:00:00 14,8 13,0 11 6 SE 1016,7 20
16.03.2019 18:00:00 16,0 14,0 9 5 ENE - 10
16.03.2019 17:00:00 17,0 14,0 9 5 E - 10
16.03.2019 16:00:00 18,2 13,7 13 7 SE 1016,5 20
16.03.2019 15:00:00 18,0 14,0 16 9 ESE - 10
16.03.2019 14:00:00 18,0 13,0 15 8 ESE - 10
16.03.2019 13:00:00 18,8 10,9 9 5 SE 1017,3 20
16.03.2019 12:00:00 18,0 10,0 13 7 SE - 10
16.03.2019 11:00:00 17,0 10,0 13 7 SE - 10
16.03.2019 10:00:00 15,2 9,4 8 4 ESE 1017,4 20
16.03.2019 09:00:00 11,0 6,0 4 2 - - 10
16.03.2019 08:00:00 - - - - - - -
16.03.2019 07:00:00 6,0 5,1 9 5 ONO 1016,6 20
16.03.2019 06:00:00 - - - - - - -
16.03.2019 05:00:00 - - - - - - -
16.03.2019 04:00:00 5,8 5,1 11 6 O 1015,4 20
16.03.2019 03:00:00 - - - - - - -
16.03.2019 02:00:00 7,0 6,0 13 7 NO - 10
16.03.2019 01:00:00 7,0 6,0 13 7 NO 1016,0 20
16.03.2019 00:00:00 8,0 6,0 11 6 ONO - 10
15.03.2019 23:00:00 10,0 8,0 9 5 N - 10
15.03.2019 22:00:00 8,8 7,1 5 3 NNE 1015,9 20
15.03.2019 21:00:00 9,0 7,0 5 3 - - 10
15.03.2019 20:00:00 12,0 8,0 9 5 NNO - 10
15.03.2019 19:00:00 12,2 9,6 5 3 S 1014,2 20
15.03.2019 18:00:00 15,0 11,0 9 5 S - 10
15.03.2019 17:00:00 17,0 9,0 13 7 S - 10
15.03.2019 16:00:00 20,0 1,9 15 8 N 1011,9 20
15.03.2019 15:00:00 21,0 2,0 15 8 - - 10
15.03.2019 14:00:00 19,0 2,0 18 10 ONO - 10
15.03.2019 13:00:00 19,6 2,0 16 9 ONO 1012,2 20
15.03.2019 12:00:00 19,0 2,0 13 7 - - 10
15.03.2019 11:00:00 18,0 3,0 15 8 - - 10
15.03.2019 10:00:00 14,8 5,3 11 6 ONO 1012,4 20
15.03.2019 09:00:00 12,0 5,0 11 6 ONO - 10
15.03.2019 08:00:00 8,0 5,0 9 5 ONO - 10
15.03.2019 07:00:00 5,2 3,9 11 6 ONO 1010,7 20
15.03.2019 06:00:00 5,0 4,0 13 7 NO - 10
15.03.2019 05:00:00 6,0 4,0 11 6 ONO - 10
15.03.2019 04:00:00 6,8 4,5 11 6 NNO 1010,5 20
15.03.2019 03:00:00 7,0 4,0 11 6 NO - 10
15.03.2019 02:00:00 8,0 5,0 11 6 NO - 10
15.03.2019 01:00:00 7,8 4,6 13 7 O 1011,9 20
15.03.2019 00:00:00 7,0 5,0 9 5 O - 10
14.03.2019 23:00:00 7,0 5,0 9 5 ONO - 10
14.03.2019 22:00:00 7,8 5,4 11 6 O 1012,1 20
14.03.2019 21:00:00 8,0 5,0 9 5 SO - 10
14.03.2019 20:00:00 10,0 6,0 11 6 ONO - 10
14.03.2019 19:00:00 10,0 5,8 22 12 NNO 1011,4 20
14.03.2019 18:00:00 11,0 6,0 28 15 NO - 10
14.03.2019 17:00:00 12,0 5,0 28 15 NNO - 10
14.03.2019 16:00:00 12,0 6,1 31 17 NNO 1009,7 20
14.03.2019 15:00:00 12,0 5,0 26 14 - - 10
14.03.2019 14:00:00 12,0 6,0 29 16 NNO - 10
14.03.2019 13:00:00 12,0 6,1 26 14 NNO 1008,6 20
14.03.2019 12:00:00 13,0 8,0 22 12 NO - 10
14.03.2019 11:00:00 11,0 8,0 8 4 ONO - 10
14.03.2019 10:00:00 10,4 9,2 5 3 NO 1009,6 10
14.03.2019 09:00:00 10,0 9,0 9 5 ONO - 8
14.03.2019 08:00:00 10,0 9,0 9 5 ONO - 6
14.03.2019 07:00:00 10,8 9,2 8 4 O 1009,2 4,0
14.03.2019 06:00:00 11,0 8,0 15 8 SE - 10
14.03.2019 05:00:00 10,0 8,0 16 9 SE - 10
14.03.2019 04:00:00 8,8 7,1 9 5 NE 1011,2 10
14.03.2019 03:00:00 9,0 8,0 5 3 NNE - 10
14.03.2019 02:00:00 9,0 7,0 5 3 NO - 10
14.03.2019 01:00:00 8,8 6,1 4 2 - 1012,5 20
14.03.2019 00:00:00 9,0 5,0 5 3 ENE - 10
13.03.2019 23:00:00 10,0 5,0 9 5 ONO - 10
13.03.2019 22:00:00 11,8 4,3 13 7 SO 1013,3 20
13.03.2019 21:00:00 13,0 3,0 18 10 SO - 10
13.03.2019 20:00:00 13,0 6,0 21 11 SSO - 10
13.03.2019 19:00:00 12,8 5,0 18 10 SSO 1013,4 20
13.03.2019 18:00:00 - - - - - - -
13.03.2019 17:00:00 - - - - - - -
13.03.2019 16:00:00 14,6 5,7 22 12 S 1013,6 20
13.03.2019 15:00:00 - - - - - - -
13.03.2019 14:00:00 - - - - - - -
13.03.2019 13:00:00 16,2 2,6 5 3 N 1015,4 20
13.03.2019 12:00:00 - - - - - - -
13.03.2019 11:00:00 15,0 3,0 13 7 ONO - 10
13.03.2019 10:00:00 13,2 3,6 13 7 ONO 1017,0 30
13.03.2019 09:00:00 11,0 4,0 18 10 NO - 10
13.03.2019 08:00:00 8,0 3,0 18 10 ONO - 10
13.03.2019 07:00:00 5,8 2,1 22 12 ONO 1016,7 10
13.03.2019 06:00:00 6,0 2,0 18 10 O - 10
13.03.2019 05:00:00 6,0 2,0 18 10 ONO - 10
13.03.2019 04:00:00 6,8 1,7 22 12 NO 1017,3 10
13.03.2019 03:00:00 8,0 2,0 16 9 NO - 10
13.03.2019 02:00:00 8,0 1,0 18 10 NO - 10
13.03.2019 01:00:00 8,2 5,3 21 11 NO 1016,4 10
13.03.2019 00:00:00 9,0 2,0 21 11 - - 10
12.03.2019 23:00:00 9,0 1,0 21 11 NO - 10
12.03.2019 22:00:00 9,0 0,7 22 12 NO 1015,3 10
12.03.2019 21:00:00 10,0 1,0 31 17 NO - 10
12.03.2019 20:00:00 10,0 1,0 28 15 NO - 10

tt = Temperatura
td = dewpoint
ff = velocità del vento
dd = direzione del vento
ppp = reduced air pressure
vv = visibility

Stazioni seguenti

WeatherPro
AMSI
MeteoEarth